This demonstration page uses our WeatherBlox Daily Observations layout. Learn more.

Left ArrowRight Arrow

31.84235, -102.49876

Hourly Observations for December 31, 2019

Temp ( °F °C ) Dew Point ( °F °C ) Humidity (%) Winds ( mph kmh ) Pressure ( in mb ) Visibility ( mi km ) Precip ( " mm )
12:53 am 00:53 Clear 30 -1.1 18 -7.8 61 61 E 9 15 30.19 1022 10 16 0.00 0.00
1:53 am 01:53 Clear 28 -2.2 18 -7.8 66 66 E 8 13 30.17 1022 10 16 0.00 0.00
2:53 am 02:53 Clear 31 -0.6 17 -8.3 56 56 ESE 6 9 30.18 1022 10 16 0.00 0.00
3:53 am 03:53 Clear 31 -0.6 17 -8.3 56 56 ESE 8 13 30.18 1022 10 16 0.00 0.00
4:53 am 04:53 Clear 30 -1.1 17 -8.3 58 58 SE 6 9 30.19 1023 10 16 0.00 0.00
5:53 am 05:53 Clear 30 -1.1 16 -8.9 56 56 SE 6 9 30.20 1023 10 16 0.00 0.00
6:53 am 06:53 Clear 28 -2.2 16 -8.9 60 60 ENE 5 7 30.23 1024 10 16 0.00 0.00
7:53 am 07:53 Sunny 25 -3.9 16 -8.9 69 69 E 6 9 30.25 1024 10 16 0.00 0.00
8:53 am 08:53 Sunny 33 0.6 18 -7.8 54 54 ESE 3 6 30.25 1024 10 16 0.00 0.00
9:53 am 09:53 Sunny 41 5 18 -7.8 39 39 SE 9 15 30.23 1024 10 16 0.00 0.00
10:53 am 10:53 Sunny 46 7.8 20 -6.7 35 35 SSE 12 19 30.22 1023 10 16 0.00 0.00
11:53 am 11:53 Sunny 49 9.4 21 -6.1 33 33 S 17 28 30.19 1022 10 16 0.00 0.00
12:53 pm 12:53 Sunny 51 10.6 22 -5.6 32 32 SSW 13 20 30.15 1021 10 16 0.00 0.00
1:53 pm 13:53 Sunny 53 11.7 22 -5.6 30 30 S 12 19 30.09 1019 10 16 0.00 0.00
2:53 pm 14:53 Sunny 54 12.2 23 -5 30 30 S 14 22 30.05 1018 10 16 0.00 0.00
3:53 pm 15:53 Sunny 54 12.2 23 -5 30 30 S 8 13 30.04 1017 10 16 0.00 0.00
4:53 pm 16:53 Sunny 53 11.7 24 -4.4 32 32 S 14 22 30.03 1017 10 16 0.00 0.00
5:53 pm 17:53 Sunny 49 9.4 24 -4.4 38 38 SSE 9 15 30.03 1017 10 16 0.00 0.00
6:53 pm 18:53 Clear 47 8.3 24 -4.4 41 41 SSE 9 15 30.04 1017 10 16 0.00 0.00
7:53 pm 19:53 Clear 46 7.8 25 -3.9 44 44 S 8 13 30.06 1018 10 16 0.00 0.00
8:53 pm 20:53 Clear 45 7.2 27 -2.8 49 49 S 8 13 30.06 1018 10 16 0.00 0.00
9:53 pm 21:53 Clear 43 6.1 28 -2.2 56 56 S 8 13 30.04 1017 10 16 0.00 0.00
10:53 pm 22:53 Clear 41 5 28 -2.2 60 60 SSE 7 11 30.02 1017 10 16 0.00 0.00
11:53 pm 23:53 Clear 40 4.4 28 -2.2 63 63 Calm 30.02 1017 10 16 0.00 0.00

Powered by Vaisala Xweather